Starlink 32724

operational
NORAD ID: 62441 Int'l Des: 2024-251 Owner: SPXS Country: US Constellation: starlink
LEOCIRCULAR

Starlink 32724について

説明を読み込み中...

リアルタイム位置

3D地球を読み込み中...

次回通過

高度履歴

Altitude vs Time

uPlot chart will show altitude changes over time

軌道要素

1 62441U 24251K 25349.78467944 .00009085 00000-0 31836-3 0 9999
2 62441 53.1605 4.9297 0001060 90.7547 269.3576 15.30211436 54945
Epoch: Dec 15, 2025 • Age: 25 hours

現在のステータス

高度 475.2 km
速度 7.63 km/s
衛星直下点 8.36°N, 18.73°W
打ち上げ日 Dec 29, 2024
運用期間 0.9 years
タイプ internet

技術仕様

分類 Payload
質量 730.00 kg
乾燥質量 700.00 kg
総質量 730.00 kg
長さ 0.30 m
直径 4.10 m
スパン 29.00 m
形状 Box + pan
製造者 SPXS
バスタイプ Starlink V2M
フェーズステータス In Orbit
所有者/国 SPXS/US

大規模コンステレーション

Loading constellations...